Location: Chippewa Lake
(41.0698°N, 81.9010°W)
Time: 21:55:49
(UTC+00:00)

Cosmos 2228 Rocket - Pass Details

Date: 09 May 2021
Orbit: 618 x 651 km, 82.5° (Epoch: 16 June)

Event Time Altitude Azimuth Distance (km) Brightness Sun altitude
Exits shadow 03:09:56 33° 60° (ENE) 1,052 4.1 -23.8°
Drops below altitude 10° 03:13:01 10° 24° (NNE) 2,011 6.0 -24.1°
Sets 03:15:23 0° 16° (NNE) 2,929 7.1 -24.4°
